Location: Ellingshausen
(50.5460°N, 10.4723°E)
Time: 23:30:58
(UTC+00:00)

IGS 5A - Pass Details

Date: 18 January 2026
Orbit: 551 x 554 km, 97.4° (Epoch: 8 January)

Event Time Altitude Azimuth Distance (km) Brightness Sun altitude
Rises 05:46:13 0° 8° (N) 2,742 6.8 -13.0°
Reaches altitude 10° 05:48:25 10° 2° (N) 1,843 5.8 -12.7°
Maximum altitude 05:52:13 46° 289° (WNW) 752 3.6 -12.1°
Drops below altitude 10° 05:56:01 10° 216° (SW) 1,828 5.8 -11.5°
Sets 05:58:11 0° 211° (SSW) 2,718 6.7 -11.2°
